Location: Berg
(47.2344°N, 9.5296°E)
Time: 22:19:15
(UTC+00:00)

AAUSAT CUBESAT 2 - Pass Details

Date: 29 November 2021
Orbit: 571 x 586 km, 97.5° (Epoch: 19 January)

Event Time Altitude Azimuth Distance (km) Brightness Sun altitude
Rises 03:27:02 0° 29° (NNE) 2,793 ? -32.9°
Reaches altitude 10° 03:29:58 10° 52° (NE) 1,891 ? -32.4°
Maximum altitude 03:32:28 16° 90° (E) 1,552 ? -32.0°
Drops below altitude 10° 03:34:59 10° 128° (SE) 1,886 ? -31.6°
Sets 03:37:52 0° 151° (SSE) 2,782 ? -31.1°
